Weather History for Monett, MO

Change the Weather History Date:

Wednesday, January 22, 2014

  Actual Average (KJLN) Record (KJLN)
Temperature  
Mean Temperature 27 °F 35 °F  
Max Temperature 37 °F 45 °F 73 °F (1967)
Min Temperature 17 °F 25 °F 3 °F (1963)
Degree Days  
Heating Degree Days 38 30  
Month to date heating degree days 660  
Since 1 July heating degree days 2277  
Cooling Degree Days 0 0  
Month to date cooling degree days 0  
Year to date cooling degree days 0  
Moisture  
Dew Point 12 °F    
Average Humidity 53    
Maximum Humidity 63    
Minimum Humidity 38    
Precipitation  
Precipitation 0.00 in 0.06 in 0.50 in (1982)
Month to date precipitation 1.45  
Year to date precipitation 1.45  
Sea Level Pressure  
Sea Level Pressure 30.14 in    
Wind  
Wind Speed 6 mph (WNW)    
Max Wind Speed 20 mph    
Max Gust Speed 28 mph    
Visibility 10 miles    
Events      
T = Trace of Precipitation, MM = Missing Value Source: NWS Daily Summary

Daily Weather History Graph

Daily Weather History Graph

Search for Another Location

Airport:

Trip Planner

Search our weather history database for the weather conditions in past years. The results will help you decide how hot, cold, wet, or windy it might be!

Date:

Astronomy

Jan. 22, 2014 Rise Set
Actual Time 7:25 AM CST 5:30 PM CST
Civil Twilight 6:57 AM CST 5:58 PM CST
Nautical Twilight 6:25 AM CST 6:30 PM CST
Astronomical Twilight 5:54 AM CST 7:00 PM CST
Moon 11:52 PM CST (1/22) 10:36 AM CST (1/22)
Length of Visible Light 11h 01m
Length of Day
10h 05m
Waning Gibbous, 65% of the Moon is Illuminated
Jan 22
Waning Gibbous
Jan 23
Last Quarter
Jan 30
New
Feb 6
First Quarter
Feb 14
Full

Hourly Weather History & Observations

Time (CST) Temp. Windchill Dew Point Humidity Pressure Visibility Wind Dir Wind Speed Gust Speed Precip Events Conditions
12:15 AM 19.4 °F 12.8 °F 6.8 °F 58% 30.12 in 10.0 mi South 4.6 mph - N/A   Clear
12:35 AM 19.4 °F 14.3 °F 6.8 °F 58% 30.12 in 10.0 mi South 3.5 mph - N/A   Clear
12:55 AM 19.4 °F - 5.0 °F 54% 30.11 in 10.0 mi Calm Calm - N/A   Clear
1:15 AM 17.6 °F 10.7 °F 6.8 °F 63% 30.10 in 10.0 mi South 4.6 mph - N/A   Clear
1:35 AM 19.4 °F 12.8 °F 5.0 °F 54% 30.09 in 10.0 mi South 4.6 mph - N/A   Clear
1:55 AM 17.6 °F 10.7 °F 6.8 °F 63% 30.08 in 10.0 mi South 4.6 mph - N/A   Clear
2:15 AM 19.4 °F 12.8 °F 6.8 °F 58% 30.08 in 10.0 mi South 4.6 mph - N/A   Clear
2:35 AM 19.4 °F 12.8 °F 5.0 °F 54% 30.08 in 10.0 mi South 4.6 mph - N/A   Clear
2:55 AM 19.4 °F - 5.0 °F 54% 30.08 in 10.0 mi Calm Calm - N/A   Clear
3:15 AM 19.4 °F 14.3 °F 5.0 °F 54% 30.08 in 10.0 mi South 3.5 mph - N/A   Clear
3:35 AM 19.4 °F 12.8 °F 5.0 °F 54% 30.08 in 10.0 mi South 4.6 mph - N/A   Clear
3:55 AM 19.4 °F 14.3 °F 5.0 °F 54% 30.07 in 10.0 mi SSW 3.5 mph - N/A   Clear
4:15 AM 19.4 °F 11.5 °F 5.0 °F 54% 30.08 in 10.0 mi SW 5.8 mph - N/A   Clear
4:35 AM 19.4 °F 12.8 °F 6.8 °F 58% 30.08 in 10.0 mi SW 4.6 mph - N/A   Clear
4:55 AM 19.4 °F 11.5 °F 6.8 °F 58% 30.08 in 10.0 mi SSW 5.8 mph - N/A   Clear
5:15 AM 19.4 °F 12.8 °F 6.8 °F 58% 30.08 in 10.0 mi SSW 4.6 mph - N/A   Clear
5:35 AM 19.4 °F 12.8 °F 6.8 °F 58% 30.08 in 10.0 mi SW 4.6 mph - N/A   Clear
5:55 AM 19.4 °F 14.3 °F 6.8 °F 58% 30.08 in 10.0 mi SSW 3.5 mph - N/A   Clear
6:15 AM 19.4 °F 12.8 °F 6.8 °F 58% 30.10 in 10.0 mi SSW 4.6 mph - N/A   Clear
6:35 AM 19.4 °F - 6.8 °F 58% 30.10 in 10.0 mi Calm Calm - N/A   Clear
6:55 AM 19.4 °F - 8.6 °F 63% 30.11 in 10.0 mi Calm Calm - N/A   Clear
7:15 AM 19.4 °F - 6.8 °F 58% 30.12 in 10.0 mi Calm Calm - N/A   Clear
7:35 AM 19.4 °F 14.3 °F 8.6 °F 63% 30.12 in 10.0 mi West 3.5 mph - N/A   Clear
7:55 AM 19.4 °F 12.8 °F 8.6 °F 63% 30.12 in 10.0 mi West 4.6 mph - N/A   Clear
8:15 AM 21.2 °F 14.9 °F 8.6 °F 58% 30.12 in 10.0 mi West 4.6 mph - N/A   Clear
8:35 AM 23.0 °F 13.9 °F 10.4 °F 59% 30.14 in 10.0 mi West 8.1 mph - N/A   Mostly Cloudy
8:55 AM 24.8 °F 16.9 °F 10.4 °F 54% 30.14 in 10.0 mi WNW 6.9 mph - N/A   Scattered Clouds
9:15 AM 26.6 °F 19.1 °F 12.2 °F 55% 30.15 in 10.0 mi West 6.9 mph - N/A   Clear
9:35 AM 28.4 °F 21.2 °F 12.2 °F 51% 30.16 in 10.0 mi WNW 6.9 mph - N/A   Clear
9:55 AM 30.2 °F 23.4 °F 14.0 °F 51% 30.16 in 10.0 mi NW 6.9 mph - N/A   Clear
10:15 AM 30.2 °F 23.4 °F 15.8 °F 55% 30.17 in 10.0 mi WNW 6.9 mph - N/A   Clear
10:35 AM 32.0 °F 24.2 °F 17.6 °F 55% 30.17 in 10.0 mi NW 9.2 mph - N/A   Clear
10:55 AM 32.0 °F 24.8 °F 19.4 °F 60% 30.16 in 10.0 mi NW 8.1 mph - N/A   Clear
11:15 AM 33.8 °F 24.8 °F 21.2 °F 60% 30.15 in 10.0 mi NW 12.7 mph 16.1 mph N/A   Clear
11:35 AM 33.8 °F 24.8 °F 21.2 °F 60% 30.15 in 10.0 mi NW 12.7 mph 18.4 mph N/A   Clear
11:55 AM 33.8 °F 24.3 °F 21.2 °F 60% 30.14 in 10.0 mi NW 13.8 mph 18.4 mph N/A   Clear
12:15 PM 33.8 °F 24.8 °F 21.2 °F 60% 30.13 in 10.0 mi WNW 12.7 mph 16.1 mph N/A   Clear
12:35 PM 33.8 °F 23.9 °F 21.2 °F 60% 30.12 in 10.0 mi WNW 15.0 mph 21.9 mph N/A   Clear
12:55 PM 35.6 °F 27.1 °F 21.2 °F 56% 30.11 in 10.0 mi WNW 12.7 mph 20.7 mph N/A   Clear
1:15 PM 37.4 °F 27.8 °F 21.2 °F 52% 30.10 in 10.0 mi WNW 17.3 mph 23.0 mph N/A   Scattered Clouds
1:35 PM 35.6 °F 25.2 °F 19.4 °F 52% 30.10 in 10.0 mi WNW 18.4 mph 24.2 mph N/A   Clear
1:55 PM 33.8 °F 23.9 °F 19.4 °F 56% 30.10 in 10.0 mi NW 15.0 mph 23.0 mph N/A   Clear
2:15 PM 35.6 °F 25.5 °F 19.4 °F 52% 30.11 in 10.0 mi NNW 17.3 mph 23.0 mph N/A   Clear
2:35 PM 35.6 °F 25.5 °F 19.4 °F 52% 30.11 in 10.0 mi NW 17.3 mph 21.9 mph N/A   Clear
2:55 PM 35.6 °F 25.5 °F 17.6 °F 48% 30.11 in 10.0 mi NNW 17.3 mph 23.0 mph N/A   Clear
3:15 PM 35.6 °F 25.9 °F 19.4 °F 52% 30.11 in 10.0 mi NNW 16.1 mph 20.7 mph N/A   Clear
3:35 PM 35.6 °F 25.5 °F 17.6 °F 48% 30.12 in 10.0 mi NNW 17.3 mph 21.9 mph N/A   Clear
3:55 PM 35.6 °F 25.9 °F 17.6 °F 48% 30.13 in 10.0 mi NW 16.1 mph 19.6 mph N/A   Clear
4:15 PM 33.8 °F 24.8 °F 14.0 °F 44% 30.13 in 10.0 mi NNW 12.7 mph 18.4 mph N/A   Clear
4:35 PM 35.6 °F 27.5 °F 12.2 °F 38% 30.13 in 10.0 mi NW 11.5 mph - N/A   Clear
4:55 PM 33.8 °F 25.3 °F 12.2 °F 41% 30.14 in 10.0 mi North 11.5 mph - N/A   Clear
5:15 PM 33.8 °F 27.0 °F 10.4 °F 38% 30.14 in 10.0 mi NNW 8.1 mph - N/A   Clear
5:35 PM 32.0 °F 24.8 °F 12.2 °F 44% 30.16 in 10.0 mi NNW 8.1 mph - N/A   Clear
5:55 PM 32.0 °F 25.6 °F 10.4 °F 41% 30.17 in 10.0 mi NNW 6.9 mph - N/A   Clear
6:15 PM 32.0 °F 26.4 °F 12.2 °F 44% 30.18 in 10.0 mi NNW 5.8 mph - N/A   Clear
6:35 PM 32.0 °F 27.5 °F 12.2 °F 44% 30.18 in 10.0 mi NW 4.6 mph - N/A   Clear
6:55 PM 32.0 °F 28.7 °F 10.4 °F 41% 30.19 in 10.0 mi NNW 3.5 mph - N/A   Clear
7:15 PM 30.2 °F 26.7 °F 10.4 °F 44% 30.19 in 10.0 mi NNW 3.5 mph - N/A   Clear
7:35 PM 30.2 °F 26.7 °F 10.4 °F 44% 30.19 in 10.0 mi NNW 3.5 mph - N/A   Clear
7:55 PM 30.2 °F - 12.2 °F 47% 30.20 in 10.0 mi Calm Calm - N/A   Clear
8:15 PM 30.2 °F - 12.2 °F 47% 30.20 in 10.0 mi Calm Calm - N/A   Clear
8:35 PM 30.2 °F 25.4 °F 12.2 °F 47% 30.21 in 10.0 mi NW 4.6 mph - N/A   Clear
8:55 PM 30.2 °F 26.7 °F 12.2 °F 47% 30.21 in 10.0 mi NW 3.5 mph - N/A   Clear
9:15 PM 30.2 °F 25.4 °F 12.2 °F 47% 30.22 in 10.0 mi NNW 4.6 mph - N/A   Clear
9:35 PM 30.2 °F 26.7 °F 14.0 °F 51% 30.23 in 10.0 mi WNW 3.5 mph - N/A   Clear
9:55 PM 30.2 °F 25.4 °F 14.0 °F 51% 30.23 in 10.0 mi WNW 4.6 mph - N/A   Clear
10:15 PM 30.2 °F 23.4 °F 12.2 °F 47% 30.24 in 10.0 mi NW 6.9 mph - N/A   Clear
10:35 PM 30.2 °F 21.3 °F 12.2 °F 47% 30.25 in 10.0 mi NNW 10.4 mph 16.1 mph N/A   Clear
10:55 PM 30.2 °F 19.8 °F 14.0 °F 51% 30.26 in 10.0 mi North 13.8 mph 18.4 mph N/A   Clear
11:15 PM 30.2 °F 17.8 °F 14.0 °F 51% 30.27 in 10.0 mi North 19.6 mph 27.6 mph N/A   Clear
11:35 PM 28.4 °F 17.0 °F 12.2 °F 51% 30.29 in 10.0 mi North 15.0 mph 23.0 mph N/A   Clear
11:55 PM 26.6 °F 13.1 °F 14.0 °F 59% 30.31 in 10.0 mi North 19.6 mph 24.2 mph N/A   Clear